Watsonville, CA

8:23 AM PDT on May 29, 2017 (GMT -0700)
Watsonville Municipal

Weather History for KWVI - March, 2014

Change the Weather History Date:

Tuesday, March 25, 2014

  Actual Average Record
Temperature  
Mean Temperature 55 °F 54 °F  
Max Temperature 64 °F 64 °F 74 °F (2015)
Min Temperature 45 °F 43 °F 38 °F (2009)
Degree Days  
Heating Degree Days 10    
Month to date heating degree days 181  
Since 1 July heating degree days 1920  
Cooling Degree Days 0    
Month to date cooling degree days 0  
Year to date cooling degree days 0  
Growing Degree Days 5 (Base 50)    
Moisture  
Dew Point 49 °F    
Average Humidity 72    
Maximum Humidity 100    
Minimum Humidity 44    
Precipitation  
Precipitation 0.01 in - 2.12 in (1991)
Month to date precipitation 0.90  
Year to date precipitation 5.65  
Since 1 July precipitation 6.72  
Sea Level Pressure  
Sea Level Pressure 29.98 in    
Wind  
Wind Speed 4 mph (West)    
Max Wind Speed 14 mph    
Max Gust Speed 17 mph    
Visibility 8 miles    
Events Rain    
T = Trace of Precipitation, MM = Missing Value Source: NWS Daily Summary

Daily Weather History Graph

Daily Weather History Graph

Search for Another Location

Airport or City:

Trip Planner

Search our weather history database for the weather conditions in past years. The results will help you decide how hot, cold, wet, or windy it might be!

Date:

Astronomy

Mar. 25, 2014 Rise Set
Actual Time 7:03 AM PDT 7:23 PM PDT
Civil Twilight 6:37 AM PDT 7:49 PM PDT
Nautical Twilight 6:06 AM PDT 8:19 PM PDT
Astronomical Twilight 5:35 AM PDT 8:51 PM PDT
Moon 3:22 AM PDT (3/25) 2:07 PM PDT (3/25)
Length of Visible Light 13h 12m
Length of Day
12h 20m
Waning Crescent, 31% of the Moon is Illuminated
Mar 25
Waning Crescent
Mar 30
New
Apr 7
First Quarter
Apr 15
Full
Apr 22
Last Quarter

Hourly Weather History & Observations

Time (PDT) Temp. Windchill Dew Point Humidity Pressure Visibility Wind Dir Wind Speed Gust Speed Precip Events Conditions
12:53 AM 48.0 °F - 46.0 °F 93% 30.06 in 10.0 mi NW 3.5 mph - N/A   Clear
1:53 AM 46.9 °F - 45.0 °F 93% 30.06 in 10.0 mi Calm Calm - N/A   Scattered Clouds
2:02 AM 48.2 °F - 46.4 °F 93% 30.06 in 10.0 mi Calm Calm - N/A   Mostly Cloudy
2:13 AM 46.4 °F 45.2 °F 44.6 °F 93% 30.06 in 10.0 mi NNW 3.5 mph - N/A   Overcast
2:53 AM 48.9 °F - 46.9 °F 93% 30.04 in 7.0 mi North 3.5 mph - N/A   Overcast
3:53 AM 51.1 °F - 50.0 °F 96% 30.03 in 8.0 mi Calm Calm - N/A   Overcast
4:18 AM 51.8 °F - 48.2 °F 88% 30.03 in 9.0 mi Calm Calm - N/A   Overcast
4:53 AM 51.1 °F - 48.9 °F 92% 30.03 in 10.0 mi NNW 3.5 mph - N/A   Overcast
5:53 AM 50.0 °F - 46.9 °F 89% 30.02 in 9.0 mi Calm Calm - N/A   Mostly Cloudy
6:20 AM 48.2 °F - 46.4 °F 93% 30.04 in 10.0 mi WNW 4.6 mph - N/A   Mostly Cloudy
6:42 AM 48.2 °F - 44.6 °F 87% 30.02 in 10.0 mi North 3.5 mph - N/A   Overcast
6:53 AM 48.0 °F - 46.0 °F 93% 30.02 in 10.0 mi Calm Calm - N/A   Overcast
7:27 AM 46.4 °F - 44.6 °F 93% 30.02 in 5.0 mi Calm Calm - N/A   Mostly Cloudy
7:31 AM 46.4 °F 44.3 °F 44.6 °F 93% 30.02 in 1.2 mi WNW 4.6 mph - N/A   Overcast
7:37 AM 46.4 °F 45.2 °F 44.6 °F 93% 30.02 in 0.8 mi WNW 3.5 mph - N/A   Mist
7:42 AM 46.4 °F 43.5 °F 44.6 °F 93% 30.03 in 2.0 mi West 5.8 mph - N/A   Mostly Cloudy
7:46 AM 46.4 °F 44.3 °F 44.6 °F 93% 30.03 in 10.0 mi West 4.6 mph - N/A   Scattered Clouds
7:53 AM 46.9 °F - 45.0 °F 93% 30.03 in 10.0 mi West 3.5 mph - N/A   Scattered Clouds
8:31 AM 50.0 °F - 46.4 °F 87% 30.04 in 10.0 mi NNW 3.5 mph - N/A   Mostly Cloudy
8:53 AM 51.1 °F - 48.0 °F 89% 30.03 in 8.0 mi Calm Calm - N/A   Mostly Cloudy
9:31 AM 51.8 °F - 48.2 °F 88% 30.05 in 9.0 mi West 4.6 mph - N/A   Overcast
9:53 AM 51.1 °F - 48.0 °F 89% 30.05 in 10.0 mi Calm Calm - N/A   Mostly Cloudy
10:06 AM 51.8 °F - 46.4 °F 82% 30.05 in 10.0 mi Calm Calm - N/A   Scattered Clouds
10:53 AM 55.9 °F - 48.0 °F 75% 30.04 in 10.0 mi Variable 5.8 mph - N/A   Clear
11:53 AM 62.1 °F - 45.0 °F 53% 30.03 in 10.0 mi Calm Calm - N/A   Scattered Clouds
12:53 PM 57.9 °F - 45.0 °F 62% 30.00 in 10.0 mi South 6.9 mph - N/A   Partly Cloudy
1:53 PM 59.0 °F - 44.1 °F 58% 29.99 in 10.0 mi WSW 8.1 mph - 0.00 in   Mostly Cloudy
2:53 PM 64.0 °F - 43.0 °F 46% 29.95 in 10.0 mi WSW 5.8 mph - N/A   Mostly Cloudy
3:53 PM 60.1 °F - 51.1 °F 72% 29.93 in 10.0 mi WSW 11.5 mph - N/A   Mostly Cloudy
4:03 PM 60.8 °F - 51.8 °F 72% 29.93 in 10.0 mi SW 12.7 mph - N/A   Overcast
4:53 PM 57.9 °F - 53.1 °F 84% 29.92 in 6.0 mi SW 10.4 mph - N/A   Haze
5:00 PM 57.2 °F - 53.6 °F 88% 29.92 in 2.5 mi SW 8.1 mph - N/A   Overcast
5:07 PM 57.2 °F - 53.6 °F 88% 29.92 in 2.0 mi WSW 9.2 mph - N/A   Overcast
5:20 PM 55.4 °F - 53.6 °F 94% 29.92 in 7.0 mi West 6.9 mph - N/A   Overcast
5:53 PM 55.0 °F - 53.1 °F 93% 29.92 in 8.0 mi SW 10.4 mph - N/A   Overcast
6:16 PM 55.4 °F - 53.6 °F 94% 29.91 in 2.5 mi West 6.9 mph - 0.01 in Rain Light Rain
6:22 PM 55.4 °F - 53.6 °F 94% 29.91 in 4.0 mi WSW 5.8 mph - 0.01 in Rain Light Rain
6:45 PM 55.4 °F - 53.6 °F 94% 29.91 in 10.0 mi SW 8.1 mph - 0.01 in   Overcast
6:53 PM 55.0 °F - 54.0 °F 96% 29.91 in 10.0 mi SW 6.9 mph - 0.01 in   Overcast
7:28 PM 55.4 °F - 51.8 °F 88% 29.91 in 10.0 mi WSW 4.6 mph - N/A   Mostly Cloudy
7:35 PM 53.6 °F - 51.8 °F 94% 29.91 in 10.0 mi WSW 5.8 mph - N/A   Mostly Cloudy
7:53 PM 54.0 °F - 52.0 °F 93% 29.92 in 10.0 mi SW 9.2 mph - N/A   Partly Cloudy
8:53 PM 53.1 °F - 51.1 °F 93% 29.92 in 10.0 mi SW 3.5 mph - N/A   Clear
9:53 PM 52.0 °F - 51.1 °F 97% 29.91 in 10.0 mi WSW 3.5 mph - N/A   Clear
10:53 PM 54.0 °F - 52.0 °F 93% 29.91 in 10.0 mi Calm Calm - N/A   Overcast
11:15 PM 53.6 °F - 51.8 °F 94% 29.91 in 10.0 mi Calm Calm - N/A   Overcast
11:30 PM 53.6 °F - 51.8 °F 94% 29.91 in 10.0 mi Calm Calm - N/A   Overcast
11:53 PM 53.1 °F - 52.0 °F 96% 29.91 in 10.0 mi Calm Calm - 0.00 in Rain Light Rain